Location: Unspecified
(40.0610°N, 0.0000°E)
Time: 01:07:15
(UTC+00:00)

Meteor 1-5 Rocket - Visible Passes

Search period start: 04 April 2026 00:00
Search period end: 14 April 2026 00:00
Orbit: 787 x 914 km, 81.2° (Epoch: 29 March)

Date Brightness Start Highest point End Pass type
(mag) Time Alt. Az. Time Alt. Az. Time Alt. Az.
4 Apr 6.0 02:13:53 10° NNE 02:18:16 26° ENE 02:19:51 22° E visible
4 Apr 4.6 03:56:26 10° NNW 04:01:13 35° W 04:01:47 34° WSW visible
5 Apr 6.0 02:01:54 10° NNE 02:06:07 24° ENE 02:07:05 22° E visible
5 Apr 4.5 03:44:15 10° NNW 03:49:01 39° W 03:49:01 39° W visible
6 Apr 6.1 01:49:55 10° NNE 01:53:58 22° ENE 01:54:26 21° ENE visible
6 Apr 4.5 03:32:05 10° NNW 03:36:24 41° WNW 03:36:24 41° WNW visible
7 Apr 6.2 01:37:57 10° NNE 01:41:48 20° ENE 01:41:55 20° ENE visible
7 Apr 4.6 03:19:55 10° NNW 03:23:53 41° WNW 03:23:53 41° WNW visible
8 Apr 6.4 01:26:01 10° NNE 01:29:29 18° ENE 01:29:29 18° ENE visible
8 Apr 4.8 03:07:45 10° NNW 03:11:26 40° NW 03:11:26 40° NW visible
9 Apr 6.5 01:14:06 10° NNE 01:17:05 17° ENE 01:17:05 17° ENE visible
9 Apr 4.9 02:55:36 10° NNW 02:59:04 39° NW 02:59:04 39° NW visible
10 Apr 6.6 01:02:13 10° NNE 01:04:46 15° ENE 01:04:46 15° ENE visible
10 Apr 5.0 02:43:27 10° NNW 02:46:44 37° NNW 02:46:44 37° NNW visible
11 Apr 6.7 00:50:23 10° NE 00:52:28 14° ENE 00:52:28 14° ENE visible
11 Apr 5.1 02:31:18 10° NNW 02:34:27 36° NNW 02:34:27 36° NNW visible
12 Apr 6.7 00:38:35 10° NE 00:40:14 13° ENE 00:40:14 13° ENE visible
12 Apr 5.2 02:19:10 10° NNW 02:22:12 35° NNW 02:22:12 35° NNW visible
13 Apr 6.8 00:26:54 10° NE 00:28:00 11° NE 00:28:00 11° NE visible
13 Apr 5.3 02:07:03 10° N 02:10:00 34° NNW 02:10:00 34° NNW visible
